SQ2WB-13 Weather Reports


time (UTC)temp
F
wind
direction
speed
knots
gust
knots
rain 1hr
in
rain 24hr
in
rain mn
in
humidity
%
barometer
mb
20260508043002 44 99 0.9 2.6 0.00 0.00 0.00 88 1009.1
20260508041501 44 88 0.9 0.9 0.00 0.00 0.00 88 1008.8
20260508040002 44 23 0.9 2.6 0.00 0.00 0.00 87 1008.8
20260508034502 44 83 1.7 3.5 0.00 0.00 0.00 87 1008.8
20260508033001 44 67 0.9 0.9 0.00 0.00 0.00 87 1008.8
20260508031501 44 93 1.7 2.6 0.00 0.00 0.00 87 1008.8
20260508030001 44 63 2.6 2.6 0.00 0.00 0.00 86 1008.8
20260508024502 44 80 1.7 2.6 0.00 0.00 0.00 85 1008.8
20260508023001 44 35 2.6 2.6 0.00 0.00 0.00 85 1008.8
20260508021501 44 33 0.9 2.6 0.00 0.00 0.00 85 1008.8
20260508020001 44 90 0.9 0.9 0.00 0.00 0.00 84 1008.8
20260508014501 44 49 1.7 2.6 0.00 0.00 0.00 84 1008.4
20260508013001 44 41 2.6 3.5 0.00 0.00 0.00 83 1008.8
20260508011501 44 70 1.7 2.6 0.00 0.00 0.00 83 1008.8
20260508010001 44 83 1.7 2.6 0.00 0.00 0.00 82 1008.8
20260508004501 44 101 0.9 0.9 0.00 0.00 0.00 82 1008.8
20260508003002 44 90 0.9 0.9 0.00 0.00 0.00 82 1008.8
20260508001501 46 111 0.9 0.9 0.00 0.00 0.00 81 1008.8
20260508000002 46 83 0.9 0.9 0.00 0.00 0.00 81 1008.8
20260507234502 46 111 0.0 0.0 0.00 0.00 0.00 81 1008.8
20260507233001 46 110 0.9 0.9 0.00 0.00 0.00 81 1008.8
20260507231501 46 111 0.9 2.6 0.00 0.00 0.00 81 1008.8
20260507230001 46 75 0.9 0.9 0.00 0.00 0.00 81 1008.8
20260507224500 46 106 2.6 3.5 0.00 0.00 0.00 81 1008.4
20260507223002 46 43 0.9 0.9 0.00 0.00 0.00 81 1008.4
20260507221502 46 45 3.5 5.2 0.00 0.00 0.00 81 1008.4
20260507220002 46 97 0.9 0.9 0.00 0.00 0.00 80 1008.4
20260507214502 46 99 0.9 0.9 0.00 0.00 0.00 80 1008.4
20260507213001 46 71 2.6 3.5 0.00 0.00 0.00 80 1008.4
20260507211502 46 332 1.7 2.6 0.00 0.00 0.00 81 1008.4
20260507210002 46 67 0.9 1.7 0.00 0.00 0.00 80 1008.1
20260507204501 46 81 0.9 2.6 0.00 0.00 0.00 81 1008.1
20260507203001 46 20 1.7 2.6 0.00 0.00 0.00 81 1008.1
20260507201501 46 4 1.7 2.6 0.00 0.00 0.00 81 1007.7
20260507200002 46 83 0.9 0.9 0.00 0.00 0.00 81 1007.7
20260507194501 46 36 0.9 0.9 0.00 0.00 0.00 81 1007.7
20260507193001 46 48 1.7 3.5 0.00 0.00 0.00 80 1007.7
20260507191501 46 77 1.7 2.6 0.00 0.00 0.00 80 1007.7
20260507190002 46 53 2.6 2.6 0.00 0.00 0.00 80 1006.7
20260507184502 46 72 1.7 2.6 0.00 0.00 0.00 80 1006.7
20260507183001 48 37 0.9 1.7 0.00 0.00 0.00 77 1006.4
20260507181502 48 350 2.6 5.2 0.00 0.00 0.00 77 1006.4
20260507180001 48 31 5.2 7.0 0.00 0.00 0.00 77 1006.4
20260507174501 50 5 2.6 3.5 0.00 0.00 0.00 75 1006.1
20260507173002 50 358 7.0 11.3 0.00 0.00 0.00 74 1005.7
20260507171501 51 43 3.5 4.3 0.00 0.00 0.00 73 1005.7
20260507170002 50 336 5.2 7.0 0.00 0.00 0.00 73 1005.7
20260507164501 51 0 4.3 4.3 0.00 0.00 0.00 72 1005.7
20260507163002 51 20 3.5 4.3 0.00 0.00 0.00 75 1005.7
20260507161505 51 352 4.3 7.8 0.00 0.00 0.00 75 1005.7
20260507160002 51 90 1.7 2.6 0.00 0.00 0.00 77 1005.7
20260507154501 51 90 2.6 2.6 0.00 0.00 0.00 76 1005.7
20260507153001 51 35 1.7 2.6 0.00 0.00 0.00 77 1005.7
20260507151501 50 7 1.7 3.5 0.00 0.00 0.00 81 1005.7
20260507150001 50 69 4.3 7.0 0.00 0.00 0.00 83 1005.7
20260507144501 51 68 2.6 4.3 0.00 0.00 0.00 76 1005.7
20260507143002 51 59 1.7 3.5 0.00 0.00 0.00 75 1005.7
20260507141502 51 41 1.7 4.3 0.00 0.00 0.00 77 1005.7
20260507140001 51 18 2.6 3.5 0.00 0.00 0.00 76 1005.4
20260507134502 50 55 3.5 4.3 0.00 0.00 0.00 76 1005.4
20260507133002 50 36 3.5 4.3 0.00 0.00 0.00 76 1005.4
20260507131501 50 33 2.6 2.6 0.00 0.00 0.00 76 1005.4
20260507130002 50 11 3.5 4.3 0.00 0.00 0.00 76 1005.4
20260507124502 50 32 2.6 4.3 0.00 0.00 0.00 77 1005.4
20260507123001 50 340 1.7 2.6 0.00 0.00 0.00 78 1005.0
20260507121502 50 9 2.6 3.5 0.00 0.00 0.00 79 1005.0
20260507120002 50 97 0.9 1.7 0.00 0.00 0.00 81 1005.0
20260507114501 51 88 0.9 2.6 0.00 0.00 0.00 75 1005.0
20260507113000 51 40 1.7 2.6 0.00 0.00 0.00 74 1004.7
20260507111503 50 101 0.0 0.9 0.00 0.00 0.00 75 1004.7
20260507110001 50 359 3.5 5.2 0.00 0.00 0.00 75 1004.0
20260507104502 50 40 1.7 2.6 0.00 0.00 0.00 76 1004.0
20260507103001 50 37 7.0 9.6 0.00 0.00 0.00 76 1004.0
20260507101501 50 5 7.0 9.6 0.00 0.00 0.00 77 1003.7
20260507100002 50 84 3.5 5.2 0.00 0.00 0.00 79 1003.7
20260507094501 48 104 0.9 1.7 0.00 0.00 0.00 81 1003.7
20260507093001 48 0 5.2 7.0 0.00 0.00 0.00 82 1003.7
20260507091502 48 334 3.5 4.3 0.00 0.00 0.00 81 1003.3
20260507090002 48 304 2.6 3.5 0.00 0.00 0.00 80 1003.0
20260507084502 48 44 2.6 3.5 0.00 0.00 0.00 80 1003.0
20260507083001 48 24 2.6 2.6 0.00 0.00 0.00 83 1003.0
20260507081501 46 48 2.6 3.5 0.00 0.00 0.00 84 1003.0
20260507080001 48 37 2.6 3.5 0.00 0.00 0.00 84 1002.7
20260507074504 48 62 1.7 2.6 0.00 0.00 0.00 83 1002.3
20260507073002 48 55 2.6 3.5 0.00 0.00 0.00 82 1002.3
20260507071500 48 16 5.2 7.0 0.00 0.00 0.00 80 1002.3
20260507070003 50 55 2.6 3.5 0.00 0.00 0.00 80 1002.0
20260507064501 48 74 2.6 2.6 0.00 0.00 0.00 84 1002.0
20260507063001 48 359 2.6 2.6 0.00 0.00 0.00 84 1002.0
20260507061502 46 8 5.2 5.2 0.00 0.00 0.00 85 1002.0
20260507060001 46 12 2.6 2.6 0.00 0.00 0.00 87 1002.0
20260507054500 46 64 0.9 1.7 0.00 0.00 0.00 87 1001.3
20260507053003 46 11 3.5 3.5 0.00 0.00 0.00 88 1001.3
20260507051501 46 88 1.7 2.6 0.00 0.00 0.00 88 1001.3
20260507050001 46 72 1.7 2.6 0.00 0.00 0.00 89 1000.6
20260507044502 46 63 2.6 2.6 0.00 0.00 0.00 90 1000.6